STARLINK-1923

Last updated on Tue Nov 24 2020 00:02:02 GMT+0000 (Coordinated Universal Time)

1 46754U 20074R 20328.58334491 -.00025584 00000-0 -27429-3 0 9994 2 46754 53.0549 13.3905 0001343 59.4536 15.6666 15.62768132 1808
UTC large
Height (km)
Speed (km/s)
/
Latitude / Longitude
Inclination (degrees)
Orbital Period (minutes)
Azimuth
Elevation
Range (km)
Doppler Factor

Next 0 passes for location: London (51.5072 / 0.1276)

Sorry there are no passes over London.